H1 CPF 2 NER 2024 3 20 9 080 01 glonass107 H2 0706501 9107 32393 2024 3 20 0 0 0 2024 3 23 23 45 0 900 1 1 0 0 0 1 H9 10 0 60389 0.00000 0 -13889838.845 -18844415.934 -10153756.892 10 0 60389 900.00000 0 -12869200.895 -17849751.286 -12922774.341 10 0 60389 1800.00000 0 -11515712.151 -16741183.273 -15441094.506 10 0 60389 2700.00000 0 -9838862.596 -15578681.307 -17659932.342 10 0 60389 3600.00000 0 -7860810.285 -14420931.523 -19536323.418 10 0 60389 4500.00000 0 -5615710.771 -13322828.238 -21033947.225 10 0 60389 5400.00000 0 -3148549.896 -12333145.123 -22123821.726 10 0 60389 6300.00000 0 -513527.677 -11492482.885 -22784856.716 10 0 60389 7200.00000 0 2227940.588 -10831578.549 -23004256.231 10 0 60389 8100.00000 0 5009524.285 -10370046.188 -22777762.945 10 0 60389 9000.00000 0 7762484.601 -10115601.057 -22109740.286 10 0 60389 9900.00000 0 10418286.303 -10063799.070 -21013090.745 10 0 60389 10800.00000 0 12911207.401 -10198302.268 -19509011.697 10 0 60389 11700.00000 0 15180839.823 -10491659.160 -17626592.805 10 0 60389 12600.00000 0 17174378.390 -10906567.539 -15402261.941 10 0 60389 13500.00000 0 18848603.873 -11397567.165 -12879089.283 10 0 60389 14400.00000 0 20171478.156 -11913091.705 -10105961.964 10 0 60389 15300.00000 0 21123285.297 -12397794.041 -7136644.296 10 0 60389 16200.00000 0 21697270.892 -12795047.201 -4028740.931 10 0 60389 17100.00000 0 21899752.930 -13049515.482 -842582.547 10 0 60389 18000.00000 0 21749699.296 -13109686.823 2359944.563 10 0 60389 18900.00000 0 21277789.524 -12930258.799 5516602.148 10 0 60389 19800.00000 0 20525000.179 -12474276.318 8566013.241 10 0 60389 20700.00000 0 19540773.439 -11714929.381 11448860.727 10 0 60389 21600.00000 0 18380846.232 -10636933.384 14109047.315 10 0 60389 22500.00000 0 17104831.695 -9237431.993 16494793.607 10 0 60389 23400.00000 0 15773655.331 -7526382.791 18559652.201 10 0 60389 24300.00000 0 14446954.356 -5526407.730 20263417.552 10 0 60389 25200.00000 0 13180550.227 -3272113.069 21572913.460 10 0 60389 26100.00000 0 12024101.181 -808905.940 22462642.604 10 0 60389 27000.00000 0 11019033.806 1808644.131 22915285.325 10 0 60389 27900.00000 0 10196840.764 4518831.191 22922037.991 10 0 60389 28800.00000 0 9577816.143 7255142.447 22482784.334 10 0 60389 29700.00000 0 9170281.310 9948794.819 21606096.566 10 0 60389 30600.00000 0 8970333.322 12531373.153 20309066.308 10 0 60389 31500.00000 0 8962125.788 14937460.366 18616968.716 10 0 60389 32400.00000 0 9118669.538 17107150.213 16562766.453 10 0 60389 33300.00000 0 9403118.412 18988338.215 14186463.289 10 0 60389 34200.00000 0 9770484.971 20538695.544 11534320.113 10 0 60389 35100.00000 0 10169712.668 21727244.063 8657948.938 10 0 60389 36000.00000 0 10546015.997 22535467.450 5613302.881 10 0 60389 36900.00000 0 10843388.755 22957912.941 2459582.331 10 0 60389 37800.00000 0 11007173.579 23002259.710 -741920.869 10 0 60389 38700.00000 0 10986583.372 22688852.401 -3929018.192 10 0 60389 39600.00000 0 10737067.536 22049720.857 -7039834.327 10 0 60389 40500.00000 0 10222422.582 21127128.610 -10014008.370 10 0 60389 41400.00000 0 9416557.774 19971712.394 -12793862.757 10 0 60389 42300.00000 0 8304841.142 18640291.781 -15325517.321 10 0 60389 43200.00000 0 6884968.993 17193441.619 -17559927.220 10 0 60389 44100.00000 0 5167322.104 15692929.336 -19453825.239 10 0 60389 45000.00000 0 3174793.232 14199124.460 -20970551.049 10 0 60389 45900.00000 0 942092.531 12768488.310 -22080752.346 10 0 60389 46800.00000 0 -1485441.023 11451248.127 -22762945.360 10 0 60389 47700.00000 0 -4053473.752 10289351.877 -23003924.772 10 0 60389 48600.00000 0 -6700690.303 9314788.127 -22799015.920 10 0 60389 49500.00000 0 -9361103.447 8548340.106 -22152164.819 10 0 60389 50400.00000 0 -11966566.292 7998825.128 -21075864.404 10 0 60389 51300.00000 0 -14449384.180 7662850.474 -19590918.132 10 0 60389 52200.00000 0 -16744919.307 7525095.510 -17726044.938 10 0 60389 53100.00000 0 -18794081.026 7559108.083 -15517332.277 10 0 60389 54000.00000 0 -20545599.228 7728581.857 -13007546.851 10 0 60389 54900.00000 0 -21957986.747 7989061.140 -10245315.193 10 0 60389 55800.00000 0 -23001109.195 8290001.758 -7284189.048 10 0 60389 56700.00000 0 -23657296.648 8577101.305 -4181612.783 10 0 60389 57600.00000 0 -23921950.444 8794800.505 -997812.303 10 0 60389 58500.00000 0 -23803619.273 8888849.762 2205373.198 10 0 60389 59400.00000 0 -23323540.973 8808831.859 5365693.883 10 0 60389 60300.00000 0 -22514668.931 8510533.258 8421702.633 10 0 60389 61200.00000 0 -21420223.807 7958062.488 11313954.936 10 0 60389 62100.00000 0 -20091831.434 7125624.649 13986171.275 10 0 60389 63000.00000 0 -18587325.325 5998875.397 16386338.731 10 0 60389 63900.00000 0 -16968306.529 4575795.561 18467729.604 10 0 60389 64800.00000 0 -15297563.771 2867047.781 20189816.748 10 0 60389 65700.00000 0 -13636462.717 895798.442 21519067.340 10 0 60389 66600.00000 0 -12042414.390 -1302989.138 22429599.372 10 0 60389 67500.00000 0 -10566529.274 -3683761.990 22903687.982 10 0 60389 68400.00000 0 -9251555.611 -6192035.873 22932111.741 10 0 60389 69300.00000 0 -8130188.277 -8766436.267 22514332.189 10 0 60389 70200.00000 0 -7223818.806 -11341037.419 21658503.225 10 0 60389 71100.00000 0 -6541778.383 -13847902.290 20381310.228 10 0 60389 72000.00000 0 -6081104.774 -16219717.717 18707642.153 10 0 60389 72900.00000 0 -5826841.918 -18392415.048 16670103.064 10 0 60389 73800.00000 0 -5752858.408 -20307667.076 14308372.758 10 0 60389 74700.00000 0 -5823149.076 -21915157.179 11668429.119 10 0 60389 75600.00000 0 -5993563.519 -23174526.183 8801647.637 10 0 60389 76500.00000 0 -6213887.278 -24056915.972 5763795.995 10 0 60389 77400.00000 0 -6430186.533 -24546045.913 2613943.797 10 0 60389 78300.00000 0 -6587316.127 -24638777.848 -586690.777 10 0 60389 79200.00000 0 -6631483.871 -24345147.039 -3775934.411 10 0 60389 80100.00000 0 -6512761.984 -23687858.928 -6891868.412 10 0 60389 81000.00000 0 -6187438.903 -22701274.078 -9874030.880 10 0 60389 81900.00000 0 -5620111.726 -21429925.015 -12664587.765 10 0 60389 82800.00000 0 -4785430.729 -19926628.212 -15209450.093 10 0 60389 83700.00000 0 -3669422.219 -18250271.078 -17459316.039 10 0 60389 84600.00000 0 -2270333.851 -16463367.004 -19370618.281 10 0 60389 85500.00000 0 -598966.570 -14629480.840 -20906359.078 10 0 60390 0.00000 0 1321521.074 -12810632.145 -22036817.841 10 0 60390 900.00000 0 3456329.870 -11064782.984 -22740119.059 10 0 60390 1800.00000 0 5760226.640 -9443516.537 -23002649.105 10 0 60390 2700.00000 0 8179195.037 -7989998.913 -22819316.648 10 0 60390 3600.00000 0 10652460.727 -6737310.350 -22193650.503 10 0 60390 4500.00000 0 13114809.229 -5707213.282 -21137733.811 10 0 60390 5400.00000 0 15499101.531 -4909407.798 -19671975.464 10 0 60390 6300.00000 0 17738884.383 -4341304.807 -17824722.594 10 0 60390 7200.00000 0 19770987.962 -3988325.857 -15631720.763 10 0 60390 8100.00000 0 21538003.790 -3824716.746 -13135431.285 10 0 60390 9000.00000 0 22990540.294 -3814840.709 -10384217.761 10 0 60390 9900.00000 0 24089162.149 -3914896.821 -7431416.625 10 0 60390 10800.00000 0 24805932.311 -4074991.324 -4334308.857 10 0 60390 11700.00000 0 25125491.860 -4241474.478 -1153012.222 10 0 60390 12600.00000 0 25045631.862 -4359444.033 2050684.707 10 0 60390 13500.00000 0 24577332.604 -4375309.060 5214524.042 10 0 60390 14400.00000 0 23744267.936 -4239304.936 8276991.959 10 0 60390 15300.00000 0 22581794.997 -3907852.059 11178519.756 10 0 60390 16200.00000 0 21135471.391 -3345657.229 13862648.595 10 0 60390 17100.00000 0 19459161.950 -2527467.353 16277134.555 10 0 60390 18000.00000 0 17612814.601 -1439399.770 18374971.770 10 0 60390 18900.00000 0 15659998.907 -79791.376 20115313.199 10 0 60390 19800.00000 0 13665310.759 1540470.898 21464270.678 10 0 60390 20700.00000 0 11691752.385 3398153.733 22395578.394 10 0 60390 21600.00000 0 9798197.601 5458408.070 22891106.739 10 0 60390 22500.00000 0 8037048.576 7675997.368 22941216.531 10 0 60390 23400.00000 0 6452182.079 9996973.020 22544946.735 10 0 60390 24300.00000 0 5077270.815 12360727.600 21710032.127 10 0 60390 25200.00000 0 3934549.524 14702340.681 20452750.639 10 0 60390 26100.00000 0 3034076.637 16955119.507 18797603.438 10 0 60390 27000.00000 0 2373521.330 19053228.565 16776834.071 10 0 60390 27900.00000 0 1938483.550 20934298.259 14429796.153 10 0 60390 28800.00000 0 1703332.108 22541903.648 11802182.115 10 0 60390 29700.00000 0 1632523.966 23827809.652 8945128.284 10 0 60390 30600.00000 0 1682347.546 24753888.922 5914214.109 10 0 60390 31500.00000 0 1803014.991 25293632.340 2768375.516 10 0 60390 32400.00000 0 1941013.580 25433189.366 -431245.926 10 0 60390 33300.00000 0 2041615.739 25171895.306 -3622495.047 10 0 60390 34200.00000 0 2051440.498 24522264.233 -6743412.596 10 0 60390 35100.00000 0 1920957.366 23509448.821 -9733438.336 10 0 60390 36000.00000 0 1606826.281 22170190.700 -12534584.150 10 0 60390 36900.00000 0 1073974.503 20551306.209 -15092554.385 10 0 60390 37800.00000 0 297322.658 18707771.652 -17357792.059 10 0 60390 38700.00000 0 -736912.920 16700488.523 -19286431.247 10 0 60390 39600.00000 0 -2030396.498 14593822.226 -20841138.002 10 0 60390 40500.00000 0 -3572362.817 12453016.661 -21991824.510 10 0 60390 41400.00000 0 -5339834.070 10341591.844 -22716223.710 10 0 60390 42300.00000 0 -7298355.731 8318832.023 -23000314.172 10 0 60390 43200.00000 0 -9403221.550 6437467.649 -22838587.817 10 0 60390 44100.00000 0 -11601138.013 4741646.373 -22234155.784 10 0 60390 45000.00000 0 -13832260.324 3265276.215 -21198690.532 10 0 60390 45900.00000 0 -16032516.739 2030808.646 -19752205.069 10 0 60390 46800.00000 0 -18136125.945 1048511.254 -17922673.018 10 0 60390 47700.00000 0 -20078203.995 316259.530 -15745496.003 10 0 60390 48600.00000 0 -21797353.194 -180144.124 -13262827.651 10 0 60390 49500.00000 0 -23238125.676 -466137.921 -10522766.164 10 0 60390 50400.00000 0 -24353259.075 -577089.866 -7578430.117 10 0 60390 51300.00000 0 -25105590.747 -556563.863 -4486934.539 10 0 60390 52200.00000 0 -25469569.989 -454235.909 -1308286.511 10 0 60390 53100.00000 0 -25432304.143 -323548.549 1895778.520 10 0 60390 54000.00000 0 -24994093.896 -219203.080 5062997.076 10 0 60390 54900.00000 0 -24168434.331 -194596.184 8131791.024 10 0 60390 55800.00000 0 -22981480.890 -299310.315 11042469.802 10 0 60390 56700.00000 0 -21471001.902 -576765.137 13738397.471 10 0 60390 57600.00000 0 -19684861.168 -1062130.643 16167101.171 10 0 60390 58500.00000 0 -17679093.941 -1780591.669 18281298.703 10 0 60390 59400.00000 0 -15515656.913 -2746038.577 20039824.684 10 0 60390 60300.00000 0 -13259946.479 -3960240.924 21408436.821 10 0 60390 61200.00000 0 -10978189.344 -5412540.408 22360486.327 10 0 60390 62100.00000 0 -8734814.751 -7080077.390 22877439.290 10 0 60390 63000.00000 0 -6589918.213 -8928542.721 22949238.838 10 0 60390 63900.00000 0 -4596922.683 -10913424.352 22574501.075 10 0 60390 64800.00000 0 -2800534.529 -12981697.278 21760541.062 10 0 60390 65700.00000 0 -1235079.206 -15073886.653 20523228.409 10 0 60390 66600.00000 0 76714.653 -17126418.044 18886675.377 10 0 60390 67500.00000 0 1124432.901 -19074156.643 16882763.656 10 0 60390 68400.00000 0 1910166.640 -20853029.162 14550519.136 10 0 60390 69300.00000 0 2448169.584 -22402618.576 11935347.048 10 0 60390 70200.00000 0 2763998.135 -23668622.891 9088142.654 10 0 60390 71100.00000 0 2893172.117 -24605074.858 6064295.123 10 0 60390 72000.00000 0 2879414.328 -25176229.564 2922604.536 10 0 60390 72900.00000 0 2772544.844 -25358040.898 -275866.391 10 0 60390 73800.00000 0 2626120.447 -25139165.311 -3468982.934 10 0 60390 74700.00000 0 2494920.179 -24521451.213 -6594747.650 10 0 60390 75600.00000 0 2432384.247 -23519894.169 -9592504.366 10 0 60390 76500.00000 0 2488115.193 -22162060.426 -12404113.319 10 0 60390 77400.00000 0 2705547.291 -20487003.643 -14975074.588 10 0 60390 78300.00000 0 3119882.704 -18543720.702 -17255578.373 10 0 60390 79200.00000 0 3756381.482 -16389211.523 -19201462.342 10 0 60390 80100.00000 0 4629077.374 -14086223.944 -20775058.308 10 0 60390 81000.00000 0 5739973.548 -11700777.449 -21945912.817 10 0 60390 81900.00000 0 7078752.222 -9299568.223 -22691368.761 10 0 60390 82800.00000 0 8623010.865 -6947362.587 -22996997.698 10 0 60390 83700.00000 0 10339015.898 -4704485.989 -22856875.305 10 0 60390 84600.00000 0 12182943.467 -2624510.522 -22273695.153 10 0 60390 85500.00000 0 14102556.774 -752235.673 -21258718.755 10 0 60391 0.00000 0 16039251.237 877954.969 -19831562.766 10 0 60391 900.00000 0 17930384.699 2243294.745 -18019826.082 10 0 60391 1800.00000 0 19711794.162 3333341.565 -15858565.176 10 0 60391 2700.00000 0 21320398.616 4150166.307 -13389624.299 10 0 60391 3600.00000 0 22696777.408 4708012.474 -10660834.185 10 0 60391 4500.00000 0 23787617.781 5032442.659 -7725093.124 10 0 60391 5400.00000 0 24547928.929 5159007.775 -4639347.428 10 0 60391 6300.00000 0 24942929.407 5131495.267 -1463490.469 10 0 60391 7200.00000 0 24949527.934 4999830.367 1740798.623 10 0 60391 8100.00000 0 24557334.487 4817719.376 4911254.027 10 0 60391 9000.00000 0 23769158.062 4640135.076 7986236.493 10 0 60391 9900.00000 0 22600969.052 4520751.347 10905936.642 10 0 60391 10800.00000 0 21081326.769 4509436.455 13613544.240 10 0 60391 11700.00000 0 19250295.206 4649912.150 16056360.017 10 0 60391 12600.00000 0 17157891.887 4977678.833 18186827.647 10 0 60391 13500.00000 0 14862134.313 5518295.777 19963465.278 10 0 60391 14400.00000 0 12426765.553 6286090.372 21351678.014 10 0 60391 15300.00000 0 9918754.032 7283352.167 22324435.253 10 0 60391 16200.00000 0 7405671.954 8500046.865 22862799.557 10 0 60391 17100.00000 0 4953061.778 9914063.445 22956296.723 10 0 60391 18000.00000 0 2621900.592 11491984.961 22603119.912 10 0 60391 18900.00000 0 466267.877 13190351.386 21810163.919 10 0 60391 19800.00000 0 -1468686.492 14957362.104 20592889.015 10 0 60391 20700.00000 0 -3148389.900 16734946.938 18975017.085 10 0 60391 21600.00000 0 -4550042.446 18461119.038 16988066.074 10 0 60391 22500.00000 0 -5663311.494 20072510.934 14670731.910 10 0 60391 23400.00000 0 -6490497.686 21506987.195 12068130.118 10 0 60391 24300.00000 0 -7046167.148 22706223.871 9230912.159 10 0 60391 25200.00000 0 -7356267.179 23618146.168 6214274.056 10 0 60391 26100.00000 0 -7456764.441 24199121.800 3076877.083 10 0 60391 27000.00000 0 -7391864.866 24415817.795 -120297.884 10 0 60391 27900.00000 0 -7211892.032 24246642.796 -3315139.552 10 0 60391 28800.00000 0 -6970915.034 23682714.462 -6445615.171 10 0 60391 29700.00000 0 -6724227.217 22728311.707 -9450975.379 10 0 60391 30600.00000 0 -6525783.150 21400793.204 -12272931.300 10 0 60391 31500.00000 0 -6425702.583 19729986.031 -14856781.014 10 0 60391 32400.00000 0 -6467946.991 17757070.416 -17152463.869 10 0 60391 33300.00000 0 -6688266.665 15533007.416 -19115522.776 10 0 60391 34200.00000 0 -7112504.701 13116575.163 -20707956.626 10 0 60391 35100.00000 0 -7755329.059 10572095.218 -21898947.327 10 0 60391 36000.00000 0 -8619445.918 7966943.018 -22665448.397 10 0 60391 36900.00000 0 -9695327.434 5368945.026 -22992624.705 10 0 60391 37800.00000 0 -10961465.732 2843769.493 -22874135.641 10 0 60391 38700.00000 0 -12385143.198 452417.749 -22312256.776 10 0 60391 39600.00000 0 -13923687.813 -1751081.262 -21317837.819 10 0 60391 40500.00000 0 -15526162.268 -3721678.931 -19910097.495 10 0 60391 41400.00000 0 -17135417.565 -5424935.364 -18116258.790 10 0 60391 42300.00000 0 -18690426.550 -6838201.538 -15971030.758 10 0 60391 43200.00000 0 -20128800.954 -7951306.959 -13515945.925 10 0 60391 44100.00000 0 -21389387.480 -8766724.807 -10798565.004 10 0 60391 45000.00000 0 -22414834.725 -9299208.159 -7871563.302 10 0 60391 45900.00000 0 -23154023.424 -9574912.871 -4791715.659 10 0 60391 46800.00000 0 -23564257.724 -9630044.255 -1618798.961 10 0 60391 47700.00000 0 -23613124.721 -9509084.740 1585566.743 10 0 60391 48600.00000 0 -23279943.115 -9262677.569 4759116.019 10 0 60391 49500.00000 0 -22556738.800 -8945256.311 7840151.183 10 0 60391 50400.00000 0 -21448705.037 -8612520.964 10768746.617 10 0 60391 51300.00000 0 -19974126.511 -8318868.127 13487920.241 10 0 60391 52200.00000 0 -18163769.227 -8114884.833 15944748.606 10 0 60391 53100.00000 0 -16059760.769 -8045013.052 18091403.221 10 0 60391 54000.00000 0 -13714007.046 -8145484.691 19886087.365 10 0 60391 54900.00000 0 -11186211.157 -8442615.408 21293854.735 10 0 60391 55800.00000 0 -8541576.838 -8951530.354 22287293.664 10 0 60391 56700.00000 0 -5848292.151 -9675376.584 22847063.478 10 0 60391 57600.00000 0 -3174898.193 -10605056.206 22962272.510 10 0 60391 58500.00000 0 -587652.430 -11719492.277 22630690.448 10 0 60391 59400.00000 0 1852003.733 -12986416.859 21858790.949 10 0 60391 60300.00000 0 4089767.991 -14363648.529 20661623.781 10 0 60391 61200.00000 0 6080494.480 -15800805.917 19062519.039 10 0 60391 62100.00000 0 7789822.084 -17241385.319 17092629.295 10 0 60391 63000.00000 0 9195346.799 -18625115.010 14790318.675 10 0 60391 63900.00000 0 10287290.407 -19890487.052 12200410.954 10 0 60391 64800.00000 0 11068639.039 -20977359.828 9373311.582 10 0 60391 65700.00000 0 11554747.541 -21829521.505 6364021.044 10 0 60391 66600.00000 0 11772428.108 -22397106.186 3231059.315 10 0 60391 67500.00000 0 11758563.398 -22638760.834 35322.852 10 0 60391 68400.00000 0 11558304.346 -22523471.587 -3161103.059 10 0 60391 69300.00000 0 11222930.294 -22031972.597 -6296152.905 10 0 60391 70200.00000 0 10807463.113 -21157678.227 -9308986.597 10 0 60391 71100.00000 0 10368137.035 -19907099.602 -12141168.497 10 0 60391 72000.00000 0 9959831.686 -18299728.257 -14737796.895 10 0 60391 72900.00000 0 9633576.948 -16367391.912 -17048562.318 10 0 60391 73800.00000 0 9434234.829 -14153109.374 -19028714.734 10 0 60391 74700.00000 0 9398455.779 -11709492.276 -20639921.666 10 0 60391 75600.00000 0 9552995.072 -9096759.879 -21851001.612 10 0 60391 76500.00000 0 9913459.632 -6380448.892 -22638519.595 10 0 60391 77400.00000 0 10483537.681 -3628912.579 -22987234.303 10 0 60391 78300.00000 0 11254743.456 -910711.752 -22890388.973 10 0 60391 79200.00000 0 12206687.942 1707995.504 -22349840.947 10 0 60391 80100.00000 0 13307864.845 4165958.556 -21376027.568 10 0 60391 81000.00000 0 14516919.690 6409131.021 -19987768.918 10 0 60391 81900.00000 0 15784350.012 8392665.680 -18211910.658 10 0 60391 82800.00000 0 17054566.495 10082525.811 -16082813.089 10 0 60391 83700.00000 0 18268229.850 11456646.903 -13641695.284 10 0 60391 84600.00000 0 19364766.362 12505601.071 -10935845.905 10 0 60391 85500.00000 0 20284957.166 13232736.939 -8017714.963 10 0 60392 0.00000 0 20973492.734 13653789.499 -4943903.524 10 0 60392 900.00000 0 21381385.346 13795976.710 -1774068.641 10 0 60392 1800.00000 0 21468136.623 13696620.540 1430231.384 10 0 60392 2700.00000 0 21203569.159 13401351.477 4606734.486 10 0 60392 3600.00000 0 20569242.926 12961971.944 7693687.480 10 0 60392 4500.00000 0 19559395.766 12434069.539 10631051.332 10 0 60392 5400.00000 0 18181366.795 11874481.482 13361674.732 10 0 60392 6300.00000 0 16455483.408 11338718.149 15832412.443 10 0 60392 7200.00000 0 14414415.207 10878455.425 17995165.928 10 0 60392 8100.00000 0 12102020.774 10539202.723 19807825.437 10 0 60392 9000.00000 0 9571734.584 10358246.038 21235094.793 10 0 60392 9900.00000 0 6884560.793 10362953.715 22249182.468 10 0 60392 10800.00000 0 4106757.159 10569517.159 22830345.403 10 0 60392 11700.00000 0 1307305.316 10982180.204 22967274.911 10 0 60392 12600.00000 0 -1444727.415 11592990.118 22657317.204 10 0 60392 13500.00000 0 -4082825.070 12382081.102 21906524.332 10 0 60392 14400.00000 0 -6545549.434 13318478.534 20729534.583 10 0 60392 15300.00000 0 -8778850.986 14361390.188 19149284.808 10 0 60392 16200.00000 0 -10738068.673 15461929.983 17196560.290 10 0 60392 17100.00000 0 -12389535.979 16565201.472 14909391.056 10 0 60392 18000.00000 0 -13711727.232 17612652.998 12332306.547 10 0 60392 18900.00000 0 -14695897.549 18544604.885 9515463.398 10 0 60392 19800.00000 0 -15346191.142 19302841.699 6513663.659 10 0 60392 20700.00000 0 -15679215.148 19833159.823 3385283.054 10 0 60392 21600.00000 0 -15723098.669 20087762.522 191130.691 10 0 60392 22500.00000 0 -15516078.431 20027401.197 -3006737.027 10 0 60392 23400.00000 0 -15104672.325 19623172.323 -6146224.615 10 0 60392 24300.00000 0 -14541519.292 18857894.304 -9166403.910 10 0 60392 25200.00000 0 -13882977.875 17727006.248 -12008694.987 10 0 60392 26100.00000 0 -13186585.512 16238950.936 -14617998.596 10 0 60392 27000.00000 0 -12508486.158 14415025.901 -16943758.421 10 0 60392 27900.00000 0 -11900934.669 12288708.766 -18940933.153 10 0 60392 28800.00000 0 -11409982.782 9904484.772 -20570860.287 10 0 60392 29700.00000 0 -11073443.496 7316224.972 -21801995.913 10 0 60392 30600.00000 0 -10919218.811 4585181.840 -22610517.220 10 0 60392 31500.00000 0 -10964060.392 1777684.698 -22980777.021 10 0 60392 32400.00000 0 -11212814.707 -1037370.599 -22905602.345 10 0 60392 33300.00000 0 -11658183.995 -3791135.010 -22386431.880 10 0 60392 34200.00000 0 -12281013.179 -6417415.804 -21433289.784 10 0 60392 35100.00000 0 -13051091.022 -8855175.523 -20064596.284 10 0 60392 36000.00000 0 -13928432.613 -11050818.191 -18306818.138 10 0 60392 36900.00000 0 -14864990.220 -12960169.074 -16193964.966 10 0 60392 37800.00000 0 -15806721.663 -14550066.682 -13766940.188 10 0 60392 38700.00000 0 -16695930.191 -15799501.532 -11072757.997 10 0 60392 39600.00000 0 -17473778.218 -16700254.610 -8163640.544 10 0 60392 40500.00000 0 -18082869.542 -17257009.200 -5096011.916 10 0 60392 41400.00000 0 -18469791.315 -17486931.547 -1929407.751 10 0 60392 42300.00000 0 -18587508.286 -17418738.066 1274678.634 10 0 60392 43200.00000 0 -18397507.526 -17091288.425 4453991.249 10 0 60392 44100.00000 0 -17871602.092 -16551763.960 7546724.087 10 0 60392 45000.00000 0 -16993316.128 -15853508.496 10492727.319 10 0 60392 45900.00000 0 -15758791.425 -15053623.154 13234682.942 10 0 60392 46800.00000 0 -14177175.623 -14210417.207 15719226.287 10 0 60392 47700.00000 0 -12270474.086 -13380823.311 17897990.888 10 0 60392 48600.00000 0 -10072870.161 -12617886.908 19728555.768 10 0 60392 49500.00000 0 -7629541.010 -11968436.471 21175276.283 10 0 60392 50400.00000 0 -4995017.501 -11471033.507 22209982.028 10 0 60392 51300.00000 0 -2231155.836 -11154289.284 22812528.084 10 0 60392 52200.00000 0 595195.054 -11035619.631 22971188.825 10 0 60392 53100.00000 0 3414733.589 -11120490.509 22682886.657 10 0 60392 54000.00000 0 6158347.621 -11402186.219 21953251.298 10 0 60392 54900.00000 0 8759748.835 -11862109.947 20796508.514 10 0 60392 55800.00000 0 11157990.103 -12470603.792 19235200.558 10 0 60392 56700.00000 0 13299761.352 -13188253.378 17299743.807 10 0 60392 57600.00000 0 15141368.840 -13967621.646 15027832.317 10 0 60392 58500.00000 0 16650316.006 -14755338.176 12463699.058 10 0 60392 59400.00000 0 17806420.844 -15494455.323 9657249.472 10 0 60392 60300.00000 0 18602424.332 -16126971.089 6663084.560 10 0 60392 61200.00000 0 19044065.813 -16596411.609 3539432.989 10 0 60392 62100.00000 0 19149623.827 -16850363.639 347013.596 10 0 60392 63000.00000 0 18948943.367 -16842849.614 -2852149.066 10 0 60392 63900.00000 0 18481992.150 -16536444.637 -5995932.446 10 0 60392 64800.00000 0 17797008.226 -15904045.839 -9023323.080 10 0 60392 65700.00000 0 16948318.241 -14930219.345 -11875599.320 10 0 60392 66600.00000 0 15993919.242 -13612068.033 -14497466.691 10 0 60392 67500.00000 0 14992926.433 -11959583.512 -16838124.067 10 0 60392 68400.00000 0 14002994.493 -9995467.318 -18852240.597 10 0 60392 69300.00000 0 13077820.707 -7754428.508 -20500825.159 10 0 60392 70200.00000 0 12264834.325 -5281986.428 -21751972.511 10 0 60392 71100.00000 0 11603168.366 -2632827.789 -22581472.722 10 0 60392 72000.00000 0 11121998.133 131214.603 -22973273.083 10 0 60392 72900.00000 0 10839315.238 2943478.738 -22919784.406 10 0 60392 73800.00000 0 10761187.821 5734991.206 -22422026.349 10 0 60392 74700.00000 0 10881537.512 8437083.001 -21489609.199 10 0 60392 75600.00000 0 11182442.338 10983996.406 -20140552.316 10 0 60392 76500.00000 0 11634953.017 13315376.298 -18400942.261 10 0 60392 77400.00000 0 12200388.833 15378543.694 -16304436.406 10 0 60392 78300.00000 0 12832059.285 17130458.101 -13891620.665 10 0 60392 79200.00000 0 13477339.817 18539287.747 -11209232.641 10 0 60392 80100.00000 0 14080014.918 19585522.677 -8309264.238 10 0 60392 81000.00000 0 14582790.304 20262584.472 -5247960.209 10 0 60392 81900.00000 0 14929868.414 20576907.115 -2084731.395 10 0 60392 82800.00000 0 15069478.304 20547485.589 1118996.565 10 0 60392 83700.00000 0 14956252.534 20204911.091 4300976.754 10 0 60392 84600.00000 0 14553349.670 19589933.447 7399353.306 10 0 60392 85500.00000 0 13834231.465 18751611.382 10353868.429 99